Zurück zum Katalog

DELTA 1 DEB

LostSSO
NORAD 40767·DEBRIS·🇺🇸 United States

Gestartet Jul 29, 1976 von Vandenberg Space Force Base

Loading…

Nächste Überflüge (nächste 24 Stunden)

TLE

VeraltetSource: Space-Track

Epoche: Jul 4, 2015, 19:30 UTC

1 40767U 76077GL  15185.81297419 -.00000556  00000-0 -47731-2 0  9994
2 40767 102.1090 182.6378 0113597 318.3049  40.9387 12.21396510415278

Verfolge DELTA 1 DEB in Echtzeit mit AllMySat

Download on the App Store